JBU22 TNCM-GCFV

Flight info

Callsign JBU22
Flight time N/A
Altitude 39000
Route MODOR2 MNOLO DCT NEYDU DCT OBIKE DCT RKDIA DCT 24N050W 26N040W 27N030W/N0454F390 28N020W DCT GDV
Aircraft A321/M-SDE3FGHIRWY/LB1

Departure

Time 2026-05-05 15:33
Airport Princess Juliana International Airport (TNCM)

Arrival

Time N/A
Airport Fuerteventura Airport (GCFV)
Time Latitude Longitude Altitude Speed Heading
2026-05-05 15:04 18.04343 -63.11294 21 ft 0 kts 352°
2026-05-05 15:28 18.04331 -63.11292 23 ft 4 kts 354°
2026-05-05 15:28 18.04304 -63.11290 22 ft 4 kts 355°
2026-05-05 15:28 18.04278 -63.11286 24 ft 4 kts 333°
2026-05-05 15:28 18.04267 -63.11281 23 ft 2 kts 242°
2026-05-05 15:29 18.04270 -63.11276 21 ft 0 kts 241°
2026-05-05 15:31 18.04254 -63.11307 21 ft 10 kts 243°
2026-05-05 15:31 18.04227 -63.11413 21 ft 19 kts 274°
2026-05-05 15:31 18.04174 -63.11538 22 ft 20 kts 232°
2026-05-05 15:31 18.04087 -63.11650 21 ft 17 kts 230°
2026-05-05 15:32 18.04051 -63.11769 22 ft 18 kts 262°
2026-05-05 15:32 18.04028 -63.11896 21 ft 17 kts 235°
2026-05-05 15:32 18.03961 -63.11963 22 ft 8 kts 162°
2026-05-05 15:32 18.03947 -63.11911 22 ft 12 kts 79°
2026-05-05 15:33 18.03994 -63.11586 22 ft 89 kts 82°
2026-05-05 15:33 18.04124 -63.10661 62 ft 160 kts 82°
2026-05-05 15:33 18.04291 -63.09444 838 ft 166 kts 92°
2026-05-05 15:33 18.03840 -63.08363 1856 ft 172 kts 134°
2026-05-05 15:34 18.02679 -63.07840 2121 ft 202 kts 174°
2026-05-05 15:34 18.01200 -63.07910 2384 ft 224 kts 179°
2026-05-05 15:34 17.99539 -63.07959 2615 ft 251 kts 174°
2026-05-05 15:34 17.97851 -63.07554 3359 ft 249 kts 152°
2026-05-05 15:35 17.96501 -63.06449 4200 ft 249 kts 128°
2026-05-05 15:35 17.95731 -63.04824 4984 ft 253 kts 102°
2026-05-05 15:35 17.95821 -63.02978 5753 ft 259 kts 73°
2026-05-05 15:35 17.96754 -63.01301 6299 ft 277 kts 48°
2026-05-05 15:36 17.98444 -63.00280 6971 ft 288 kts 18°
2026-05-05 15:36 18.00308 -62.99535 7751 ft 286 kts 30°
2026-05-05 15:36 18.02038 -62.98503 8486 ft 288 kts 32°
2026-05-05 15:36 18.03792 -62.97435 9110 ft 294 kts 32°
2026-05-05 15:37 18.05575 -62.96355 9804 ft 297 kts 30°
2026-05-05 15:37 18.07394 -62.95296 10375 ft 305 kts 29°
2026-05-05 15:37 18.09331 -62.94189 10542 ft 328 kts 28°
2026-05-05 15:37 18.11414 -62.93015 10690 ft 351 kts 28°
2026-05-05 15:38 18.13634 -62.91777 10819 ft 371 kts 28°
2026-05-05 15:38 18.15950 -62.90496 11218 ft 379 kts 27°
2026-05-05 15:38 18.18296 -62.89202 11784 ft 383 kts 27°
2026-05-05 15:38 18.20666 -62.87897 12352 ft 386 kts 27°
2026-05-05 15:39 18.23055 -62.86580 12929 ft 389 kts 27°
2026-05-05 15:39 18.25460 -62.85252 13496 ft 392 kts 27°
2026-05-05 15:39 18.27887 -62.83910 14039 ft 395 kts 27°
2026-05-05 15:39 18.30329 -62.82558 14559 ft 398 kts 27°
2026-05-05 15:40 18.32781 -62.81194 15118 ft 400 kts 27°
2026-05-05 15:40 18.35099 -62.79564 15659 ft 404 kts 38°
2026-05-05 15:40 18.37164 -62.77539 16209 ft 407 kts 43°
2026-05-05 15:40 18.39188 -62.75437 16756 ft 410 kts 41°
2026-05-05 15:41 18.41229 -62.73326 17294 ft 413 kts 43°
2026-05-05 15:41 18.43287 -62.71202 17848 ft 416 kts 41°
2026-05-05 15:41 18.45364 -62.69063 18387 ft 419 kts 42°
2026-05-05 15:41 18.47456 -62.66908 18853 ft 422 kts 41°
2026-05-05 15:42 18.49564 -62.64733 19274 ft 426 kts 43°
2026-05-05 15:42 18.51690 -62.62536 19669 ft 430 kts 43°
2026-05-05 15:42 18.53835 -62.60318 20065 ft 434 kts 42°
2026-05-05 15:42 18.55998 -62.58079 20428 ft 438 kts 43°
2026-05-05 15:43 18.58182 -62.55820 20800 ft 442 kts 43°
2026-05-05 15:43 18.60357 -62.53570 21151 ft 445 kts 44°
2026-05-05 15:43 18.62577 -62.51274 21495 ft 449 kts 44°
2026-05-05 15:43 18.64815 -62.48957 21848 ft 453 kts 44°
2026-05-05 15:44 18.67074 -62.46612 22157 ft 457 kts 45°
2026-05-05 15:44 18.69347 -62.44250 22485 ft 461 kts 45°
2026-05-05 15:44 18.71636 -62.41873 22869 ft 463 kts 45°
2026-05-05 15:44 18.73945 -62.39484 23164 ft 466 kts 45°
2026-05-05 15:45 18.76265 -62.37088 23554 ft 468 kts 45°
2026-05-05 15:45 18.78596 -62.34678 23872 ft 470 kts 46°
2026-05-05 15:45 18.80934 -62.32255 24149 ft 472 kts 45°
2026-05-05 15:45 18.83280 -62.29819 24455 ft 474 kts 46°
2026-05-05 15:46 18.85634 -62.27365 24753 ft 476 kts 46°
2026-05-05 15:46 18.88024 -62.24870 25039 ft 478 kts 46°
2026-05-05 15:46 18.90365 -62.22429 25331 ft 480 kts 46°
2026-05-05 15:46 18.92776 -62.19913 25629 ft 481 kts 45°
2026-05-05 15:47 18.95133 -62.17459 25918 ft 483 kts 46°
2026-05-05 15:47 18.96755 -62.15774 26117 ft 484 kts 45°
2026-05-05 15:47 18.99941 -62.12466 26487 ft 486 kts 45°
2026-05-05 15:47 19.02354 -62.09954 26781 ft 488 kts 46°
2026-05-05 15:48 19.04774 -62.07427 27068 ft 490 kts 45°
2026-05-05 15:48 19.07206 -62.04889 27340 ft 491 kts 45°
2026-05-05 15:48 19.09639 -62.02348 27662 ft 493 kts 45°
2026-05-05 15:48 19.12079 -61.99799 27992 ft 493 kts 45°
2026-05-05 15:49 19.14513 -61.97253 28401 ft 491 kts 46°
2026-05-05 15:49 19.16939 -61.94719 28819 ft 490 kts 45°
2026-05-05 15:49 19.19363 -61.92186 29232 ft 489 kts 45°
2026-05-05 15:49 19.21774 -61.89664 29674 ft 486 kts 45°
2026-05-05 15:50 19.24173 -61.87152 30123 ft 484 kts 45°
2026-05-05 15:50 19.26562 -61.84649 30495 ft 483 kts 45°
2026-05-05 15:50 19.28950 -61.82150 30811 ft 483 kts 45°
2026-05-05 15:50 19.31337 -61.79654 31138 ft 482 kts 44°
2026-05-05 15:51 19.33723 -61.77158 31462 ft 482 kts 44°
2026-05-05 15:51 19.36103 -61.74659 31754 ft 482 kts 44°
2026-05-05 15:51 19.38480 -61.72156 32076 ft 482 kts 43°
2026-05-05 15:51 19.40860 -61.69652 32376 ft 482 kts 44°
2026-05-05 15:52 19.43242 -61.67151 32696 ft 482 kts 43°
2026-05-05 15:52 19.45619 -61.64655 33042 ft 481 kts 43°
2026-05-05 15:52 19.47994 -61.62161 33372 ft 480 kts 43°
2026-05-05 15:52 19.50364 -61.59672 33703 ft 480 kts 43°
2026-05-05 15:53 19.52732 -61.57184 34054 ft 479 kts 43°
2026-05-05 15:53 19.55089 -61.54700 34356 ft 478 kts 43°
2026-05-05 15:53 19.57441 -61.52215 34653 ft 477 kts 43°
2026-05-05 15:53 19.59788 -61.49735 34949 ft 476 kts 43°
2026-05-05 15:54 19.62132 -61.47259 35250 ft 475 kts 43°
2026-05-05 15:54 19.64473 -61.44792 35550 ft 474 kts 43°
2026-05-05 15:54 19.66812 -61.42332 35846 ft 474 kts 43°
2026-05-05 15:54 19.69155 -61.39871 36107 ft 474 kts 43°
2026-05-05 15:55 19.71493 -61.37409 36383 ft 473 kts 43°
2026-05-05 15:55 19.73825 -61.34947 36660 ft 473 kts 43°
2026-05-05 15:55 19.76155 -61.32485 36942 ft 472 kts 43°
2026-05-05 15:55 19.78479 -61.30028 37113 ft 472 kts 43°
2026-05-05 15:56 19.80806 -61.27565 37155 ft 473 kts 43°
2026-05-05 15:56 19.85467 -61.22626 37155 ft 473 kts 43°
2026-05-05 15:57 19.90133 -61.17688 37158 ft 473 kts 43°
2026-05-05 15:57 19.94805 -61.12736 37157 ft 475 kts 43°
2026-05-05 15:58 19.99483 -61.07770 37160 ft 475 kts 43°
2026-05-05 15:58 20.04166 -61.02803 37165 ft 476 kts 43°
2026-05-05 15:59 20.08850 -60.97829 37178 ft 476 kts 43°
2026-05-05 15:59 20.12738 -60.93692 37182 ft 476 kts 43°
2026-05-05 16:00 20.18171 -60.87897 37188 ft 476 kts 43°
2026-05-05 16:00 20.22091 -60.83710 37183 ft 477 kts 43°
2026-05-05 16:01 20.26775 -60.78708 37182 ft 477 kts 43°
2026-05-05 16:01 20.31472 -60.73708 37184 ft 477 kts 43°
2026-05-05 16:02 20.36160 -60.68705 37189 ft 477 kts 43°
2026-05-05 16:02 20.40837 -60.63700 37195 ft 476 kts 43°
2026-05-05 16:03 20.45515 -60.58697 37188 ft 477 kts 43°
2026-05-05 16:03 20.50191 -60.53674 37183 ft 477 kts 43°
2026-05-05 16:04 20.54861 -60.48646 37180 ft 477 kts 43°
2026-05-05 16:04 20.59518 -60.43663 37179 ft 477 kts 43°
2026-05-05 16:05 20.64197 -60.38649 37182 ft 476 kts 43°
2026-05-05 16:05 20.68866 -60.33622 37185 ft 477 kts 43°
2026-05-05 16:06 20.73536 -60.28587 37180 ft 477 kts 43°
2026-05-05 16:06 20.78209 -60.23549 37180 ft 477 kts 43°
2026-05-05 16:07 20.82886 -60.18504 37183 ft 478 kts 43°
2026-05-05 16:07 20.87566 -60.13461 37187 ft 477 kts 43°
2026-05-05 16:08 20.92237 -60.08410 37195 ft 478 kts 43°
2026-05-05 16:08 20.96912 -60.03345 37193 ft 479 kts 44°
2026-05-05 16:09 21.00726 -59.97505 37190 ft 483 kts 63°
2026-05-05 16:09 21.03110 -59.90777 37192 ft 484 kts 69°
2026-05-05 16:10 21.05385 -59.83990 37195 ft 484 kts 69°
2026-05-05 16:10 21.07668 -59.77207 37196 ft 484 kts 69°
2026-05-05 16:11 21.09952 -59.70433 37204 ft 484 kts 69°
2026-05-05 16:12 21.14498 -59.56849 37202 ft 485 kts 69°
2026-05-05 16:13 21.20138 -59.39923 37662 ft 481 kts 69°
2026-05-05 16:13 21.21261 -59.36546 37916 ft 481 kts 69°
2026-05-05 16:13 21.22380 -59.33175 38139 ft 480 kts 69°
2026-05-05 16:14 21.26839 -59.19739 38181 ft 477 kts 69°
2026-05-05 16:15 21.31284 -59.06317 38172 ft 478 kts 69°
2026-05-05 16:16 21.35717 -58.92865 38198 ft 478 kts 69°
2026-05-05 16:17 21.39034 -58.82766 38196 ft 478 kts 69°
2026-05-05 16:18 21.42346 -58.72670 38197 ft 478 kts 69°
2026-05-05 16:19 21.45661 -58.62568 38198 ft 478 kts 69°
2026-05-05 16:19 21.48969 -58.52464 38203 ft 478 kts 69°
2026-05-05 16:20 21.53358 -58.38985 38202 ft 478 kts 69°
2026-05-05 16:22 21.58821 -58.22159 38206 ft 477 kts 69°
2026-05-05 16:23 21.63155 -58.08754 38201 ft 476 kts 69°
2026-05-05 16:23 21.66409 -57.98656 38205 ft 477 kts 69°
2026-05-05 16:24 21.68578 -57.91920 38202 ft 477 kts 69°
2026-05-05 16:25 21.71841 -57.81814 38210 ft 477 kts 69°
2026-05-05 16:25 21.75081 -57.71713 38209 ft 476 kts 69°
2026-05-05 16:26 21.79391 -57.58247 38211 ft 476 kts 70°
2026-05-05 16:27 21.81541 -57.51519 38211 ft 475 kts 70°
2026-05-05 16:27 21.83682 -57.44789 38211 ft 475 kts 70°
2026-05-05 16:28 21.85817 -57.38057 38206 ft 475 kts 70°
2026-05-05 16:28 21.87953 -57.31334 38217 ft 474 kts 70°
2026-05-05 16:29 21.90086 -57.24625 38214 ft 473 kts 70°
2026-05-05 16:29 21.92210 -57.17922 38214 ft 473 kts 70°
2026-05-05 16:30 21.94326 -57.11216 38209 ft 473 kts 70°
2026-05-05 16:30 21.96439 -57.04514 38221 ft 473 kts 70°
2026-05-05 16:31 21.98550 -56.97806 38212 ft 473 kts 70°
2026-05-05 16:31 22.00661 -56.91094 38214 ft 473 kts 70°
2026-05-05 16:32 22.02776 -56.84384 38210 ft 473 kts 70°
2026-05-05 16:32 22.04879 -56.77672 38212 ft 472 kts 70°
2026-05-05 16:33 22.06964 -56.71008 38209 ft 472 kts 70°
2026-05-05 16:33 22.09062 -56.64299 38218 ft 472 kts 70°
2026-05-05 16:34 22.11154 -56.57586 38217 ft 472 kts 70°
2026-05-05 16:34 22.13249 -56.50870 38215 ft 472 kts 70°
2026-05-05 16:35 22.15345 -56.44152 38208 ft 472 kts 70°
2026-05-05 16:35 22.17437 -56.37435 38222 ft 473 kts 70°
2026-05-05 16:36 22.19521 -56.30708 38220 ft 473 kts 70°
2026-05-05 16:36 22.21599 -56.23979 38219 ft 473 kts 70°
2026-05-05 16:37 22.23676 -56.17243 38222 ft 473 kts 70°
2026-05-05 16:37 22.25754 -56.10502 38207 ft 474 kts 70°
2026-05-05 16:38 22.27833 -56.03752 38219 ft 474 kts 70°
2026-05-05 16:38 22.29922 -55.96994 38223 ft 475 kts 70°
2026-05-05 16:39 22.32004 -55.90227 38211 ft 475 kts 70°
2026-05-05 16:39 22.34076 -55.83452 38215 ft 475 kts 70°
2026-05-05 16:40 22.36144 -55.76671 38221 ft 475 kts 70°
2026-05-05 16:40 22.38209 -55.69887 38222 ft 475 kts 70°
2026-05-05 16:41 22.40283 -55.63108 38217 ft 475 kts 70°
2026-05-05 16:41 22.42342 -55.56376 38221 ft 475 kts 70°
2026-05-05 16:42 22.44402 -55.49593 38221 ft 475 kts 70°
2026-05-05 16:42 22.46461 -55.42807 38223 ft 475 kts 70°
2026-05-05 16:43 22.48522 -55.36024 38221 ft 475 kts 70°
2026-05-05 16:43 22.50567 -55.29232 38220 ft 475 kts 70°
2026-05-05 16:44 22.52612 -55.22442 38223 ft 475 kts 70°
2026-05-05 16:44 22.54666 -55.15656 38220 ft 474 kts 70°
2026-05-05 16:45 22.56712 -55.08877 38231 ft 474 kts 70°
2026-05-05 16:45 22.58749 -55.02090 38219 ft 474 kts 70°
2026-05-05 16:46 22.60782 -54.95305 38218 ft 474 kts 70°
2026-05-05 16:46 22.62814 -54.88518 38220 ft 474 kts 70°
2026-05-05 16:47 22.64841 -54.81726 38220 ft 474 kts 70°
2026-05-05 16:47 22.66869 -54.74934 38217 ft 474 kts 70°
2026-05-05 16:48 22.68894 -54.68146 38224 ft 474 kts 70°
2026-05-05 16:48 22.70918 -54.61355 38221 ft 474 kts 70°
2026-05-05 16:49 22.72593 -54.55709 38224 ft 474 kts 70°
2026-05-05 16:49 22.74602 -54.48914 38221 ft 474 kts 70°
2026-05-05 16:50 22.76943 -54.41010 38224 ft 474 kts 70°
2026-05-05 16:50 22.78624 -54.35313 38223 ft 474 kts 70°
2026-05-05 16:51 22.80632 -54.28514 38222 ft 474 kts 70°
2026-05-05 16:51 22.82639 -54.21708 38225 ft 474 kts 70°
2026-05-05 16:52 22.84642 -54.14906 38226 ft 474 kts 70°
2026-05-05 16:52 22.86622 -54.08146 38228 ft 474 kts 71°
2026-05-05 16:53 22.88608 -54.01338 38223 ft 474 kts 70°
2026-05-05 16:53 22.90602 -53.94530 38223 ft 474 kts 70°
2026-05-05 16:54 22.92596 -53.87718 38226 ft 475 kts 70°
2026-05-05 16:54 22.94605 -53.80831 38237 ft 481 kts 70°
2026-05-05 16:55 22.96615 -53.73930 38242 ft 478 kts 71°
2026-05-05 16:55 22.98611 -53.67057 38239 ft 476 kts 71°
2026-05-05 16:56 23.00593 -53.60211 38235 ft 475 kts 71°
2026-05-05 16:56 23.02570 -53.53378 38234 ft 474 kts 71°
2026-05-05 16:57 23.04547 -53.46551 38234 ft 476 kts 71°
2026-05-05 16:57 23.06527 -53.39676 38238 ft 477 kts 71°
2026-05-05 16:58 23.08491 -53.32816 38235 ft 475 kts 71°
2026-05-05 16:58 23.10450 -53.25975 38232 ft 474 kts 71°
2026-05-05 16:59 23.12413 -53.19151 38238 ft 473 kts 71°
2026-05-05 16:59 23.14371 -53.12338 38228 ft 472 kts 71°
2026-05-05 17:00 23.16317 -53.05524 38226 ft 472 kts 71°
2026-05-05 17:00 23.18257 -52.98704 38231 ft 472 kts 71°
2026-05-05 17:01 23.20202 -52.91883 38232 ft 472 kts 71°
2026-05-05 17:01 23.22132 -52.85113 38231 ft 472 kts 71°
2026-05-05 17:02 23.24066 -52.78293 38231 ft 472 kts 71°
2026-05-05 17:02 23.25993 -52.71476 38237 ft 471 kts 71°
2026-05-05 17:03 23.27922 -52.64661 38228 ft 472 kts 71°
2026-05-05 17:03 23.29842 -52.57839 38228 ft 472 kts 71°
2026-05-05 17:04 23.31758 -52.51013 38228 ft 472 kts 71°
2026-05-05 17:04 23.33683 -52.44192 38230 ft 472 kts 71°
2026-05-05 17:05 23.35600 -52.37367 38232 ft 472 kts 71°
2026-05-05 17:05 23.37507 -52.30538 38231 ft 472 kts 71°
2026-05-05 17:06 23.39410 -52.23709 38236 ft 471 kts 71°
2026-05-05 17:06 23.41321 -52.16884 38232 ft 471 kts 71°
2026-05-05 17:07 23.43222 -52.10054 38231 ft 471 kts 71°
2026-05-05 17:07 23.45119 -52.03225 38234 ft 471 kts 71°
2026-05-05 17:08 23.47017 -51.96394 38233 ft 471 kts 71°
2026-05-05 17:08 23.48908 -51.89565 38235 ft 471 kts 71°
2026-05-05 17:09 23.50794 -51.82737 38230 ft 471 kts 71°
2026-05-05 17:09 23.52679 -51.75907 38235 ft 471 kts 71°
2026-05-05 17:10 23.54563 -51.69079 38234 ft 470 kts 71°
2026-05-05 17:10 23.56446 -51.62251 38233 ft 470 kts 71°
2026-05-05 17:11 23.58323 -51.55421 38236 ft 470 kts 71°
2026-05-05 17:11 23.60190 -51.48589 38235 ft 470 kts 71°
2026-05-05 17:12 23.62057 -51.41760 38230 ft 470 kts 71°
2026-05-05 17:12 23.63917 -51.34930 38237 ft 470 kts 71°
2026-05-05 17:13 23.65774 -51.28102 38234 ft 470 kts 71°
2026-05-05 17:13 23.67637 -51.21275 38232 ft 469 kts 71°
2026-05-05 17:14 23.69488 -51.14446 38231 ft 469 kts 71°
2026-05-05 17:14 23.71332 -51.07613 38230 ft 469 kts 71°
2026-05-05 17:15 23.73184 -51.00781 38231 ft 470 kts 71°
2026-05-05 17:15 23.75034 -50.93942 38240 ft 470 kts 71°
2026-05-05 17:16 23.76872 -50.87097 38230 ft 470 kts 71°
2026-05-05 17:16 23.78714 -50.80246 38234 ft 470 kts 71°
2026-05-05 17:17 23.80548 -50.73392 38234 ft 470 kts 71°
2026-05-05 17:17 23.82382 -50.66535 38234 ft 470 kts 71°
2026-05-05 17:18 23.84214 -50.59679 38239 ft 470 kts 71°
2026-05-05 17:18 23.86045 -50.52828 38238 ft 470 kts 71°
2026-05-05 17:19 23.87870 -50.45974 38238 ft 470 kts 72°
2026-05-05 17:19 23.89683 -50.39117 38236 ft 470 kts 71°
2026-05-05 17:20 23.91501 -50.32266 38231 ft 469 kts 71°
2026-05-05 17:20 23.93318 -50.25416 38230 ft 469 kts 71°
2026-05-05 17:21 23.95130 -50.18568 38232 ft 469 kts 71°
2026-05-05 17:22 23.97834 -50.08301 38230 ft 468 kts 72°
2026-05-05 17:22 23.99628 -50.01457 38231 ft 468 kts 72°
2026-05-05 17:23 24.01349 -49.94584 38227 ft 469 kts 73°
2026-05-05 17:23 24.02955 -49.87674 38231 ft 469 kts 73°
2026-05-05 17:24 24.04551 -49.80758 38231 ft 469 kts 73°
2026-05-05 17:24 24.06167 -49.73848 38232 ft 469 kts 73°
2026-05-05 17:25 24.07792 -49.66939 38233 ft 469 kts 73°
2026-05-05 17:25 24.09419 -49.60032 38238 ft 469 kts 73°
2026-05-05 17:26 24.11040 -49.53120 38235 ft 469 kts 73°
2026-05-05 17:26 24.12649 -49.46201 38236 ft 469 kts 73°
2026-05-05 17:27 24.14256 -49.39282 38237 ft 469 kts 73°
2026-05-05 17:27 24.15859 -49.32368 38237 ft 469 kts 73°
2026-05-05 17:28 24.17458 -49.25451 38236 ft 468 kts 73°
2026-05-05 17:28 24.19058 -49.18536 38236 ft 468 kts 73°
2026-05-05 17:29 24.20653 -49.11621 38236 ft 468 kts 73°
2026-05-05 17:29 24.22241 -49.04705 38236 ft 468 kts 73°
2026-05-05 17:30 24.23835 -48.97796 38240 ft 468 kts 73°
2026-05-05 17:30 24.25415 -48.90883 38240 ft 468 kts 73°
2026-05-05 17:31 24.26994 -48.83971 38239 ft 467 kts 73°
2026-05-05 17:31 24.28566 -48.77059 38244 ft 467 kts 73°
2026-05-05 17:32 24.30140 -48.70144 38239 ft 468 kts 73°
2026-05-05 17:32 24.31710 -48.63220 38236 ft 468 kts 73°
2026-05-05 17:33 24.33285 -48.56301 38238 ft 468 kts 73°
2026-05-05 17:33 24.34598 -48.50498 38238 ft 468 kts 73°
2026-05-05 17:34 24.36156 -48.43575 38242 ft 468 kts 73°
2026-05-05 17:34 24.37710 -48.36649 38311 ft 467 kts 73°
2026-05-05 17:34 24.38484 -48.33196 38627 ft 465 kts 73°
2026-05-05 17:35 24.39258 -48.29755 38909 ft 465 kts 73°
2026-05-05 17:35 24.40029 -48.26317 39107 ft 464 kts 73°
2026-05-05 17:35 24.40798 -48.22870 39198 ft 465 kts 73°
2026-05-05 17:36 24.42328 -48.15981 39211 ft 464 kts 73°
2026-05-05 17:36 24.43869 -48.09106 39208 ft 464 kts 73°
2026-05-05 17:37 24.45406 -48.02228 39210 ft 464 kts 73°
2026-05-05 17:37 24.46933 -47.95353 39210 ft 463 kts 73°
2026-05-05 17:38 24.48450 -47.88475 39222 ft 464 kts 73°
2026-05-05 17:38 24.49967 -47.81587 39225 ft 465 kts 73°
2026-05-05 17:39 24.51491 -47.74693 39234 ft 465 kts 73°
2026-05-05 17:39 24.53020 -47.67797 39235 ft 465 kts 73°
2026-05-05 17:40 24.54537 -47.60895 39235 ft 465 kts 73°
2026-05-05 17:40 24.56046 -47.53990 39235 ft 465 kts 73°
2026-05-05 17:41 24.57550 -47.47089 39243 ft 465 kts 73°
2026-05-05 17:41 24.59046 -47.40182 39238 ft 465 kts 73°
2026-05-05 17:42 24.60535 -47.33320 39243 ft 465 kts 73°
2026-05-05 17:42 24.62037 -47.26418 39233 ft 464 kts 73°
2026-05-05 17:43 24.63534 -47.19515 39234 ft 464 kts 73°
2026-05-05 17:43 24.65023 -47.12609 39242 ft 464 kts 73°
2026-05-05 17:44 24.66524 -47.05662 39232 ft 464 kts 73°
2026-05-05 17:44 24.68007 -46.98754 39229 ft 464 kts 73°
2026-05-05 17:45 24.69488 -46.91842 39239 ft 464 kts 73°
2026-05-05 17:45 24.70965 -46.84934 39234 ft 464 kts 73°
2026-05-05 17:46 24.72436 -46.78017 39237 ft 464 kts 73°
2026-05-05 17:46 24.73904 -46.71102 39234 ft 464 kts 73°
2026-05-05 17:47 24.75378 -46.64191 39238 ft 464 kts 73°
2026-05-05 17:47 24.76854 -46.57271 39238 ft 465 kts 73°
2026-05-05 17:48 24.78317 -46.50346 39232 ft 465 kts 73°
2026-05-05 17:48 24.79764 -46.43417 39235 ft 464 kts 73°
2026-05-05 17:49 24.81218 -46.36499 39235 ft 464 kts 73°
2026-05-05 17:49 24.82675 -46.29580 39235 ft 464 kts 73°
2026-05-05 17:50 24.84113 -46.22696 39236 ft 464 kts 73°
2026-05-05 17:50 24.85558 -46.15768 39243 ft 464 kts 73°
2026-05-05 17:51 24.87006 -46.08842 39236 ft 464 kts 73°
2026-05-05 17:51 24.88448 -46.01913 39236 ft 464 kts 73°
2026-05-05 17:52 24.89880 -45.94982 39240 ft 464 kts 73°
2026-05-05 17:52 24.91309 -45.88060 39238 ft 463 kts 73°
2026-05-05 17:53 24.92736 -45.81139 39241 ft 463 kts 73°
2026-05-05 17:53 24.94158 -45.74218 39240 ft 463 kts 73°
2026-05-05 17:54 24.95577 -45.67303 39233 ft 463 kts 73°
2026-05-05 17:54 24.96988 -45.60388 39233 ft 462 kts 73°
2026-05-05 17:55 24.98399 -45.53475 39231 ft 462 kts 73°
2026-05-05 17:55 24.99814 -45.46568 39235 ft 462 kts 73°
2026-05-05 17:56 25.01222 -45.39656 39232 ft 462 kts 73°
2026-05-05 17:56 25.02623 -45.32744 39235 ft 462 kts 73°
2026-05-05 17:57 25.04022 -45.25835 39231 ft 462 kts 73°
2026-05-05 17:57 25.05413 -45.18926 39232 ft 461 kts 73°
2026-05-05 17:58 25.06802 -45.12016 39230 ft 461 kts 73°
2026-05-05 17:58 25.08188 -45.05110 39226 ft 461 kts 73°
2026-05-05 17:59 25.09568 -44.98208 39229 ft 461 kts 73°
2026-05-05 17:59 25.10950 -44.91304 39227 ft 461 kts 73°
2026-05-05 18:00 25.12325 -44.84397 39230 ft 461 kts 73°
2026-05-05 18:00 25.13689 -44.77487 39235 ft 461 kts 73°
2026-05-05 18:01 25.15058 -44.70578 39233 ft 461 kts 73°
2026-05-05 18:01 25.16423 -44.63664 39232 ft 461 kts 73°
2026-05-05 18:02 25.17783 -44.56754 39241 ft 460 kts 73°
2026-05-05 18:02 25.19142 -44.49849 39232 ft 460 kts 73°
2026-05-05 18:03 25.20500 -44.42950 39230 ft 460 kts 73°
2026-05-05 18:03 25.21839 -44.36095 39233 ft 459 kts 73°
2026-05-05 18:04 25.23181 -44.29205 39236 ft 459 kts 73°
2026-05-05 18:04 25.24522 -44.22317 39236 ft 459 kts 73°
2026-05-05 18:05 25.25849 -44.15428 39230 ft 458 kts 73°
2026-05-05 18:05 25.27182 -44.08542 39230 ft 458 kts 73°
2026-05-05 18:06 25.28521 -44.01658 39239 ft 458 kts 73°
2026-05-05 18:06 25.29847 -43.94772 39232 ft 458 kts 73°
2026-05-05 18:07 25.31167 -43.87882 39231 ft 458 kts 73°
2026-05-05 18:07 25.32488 -43.80995 39233 ft 458 kts 73°
2026-05-05 18:08 25.33804 -43.74105 39234 ft 458 kts 73°
2026-05-05 18:08 25.35116 -43.67215 39231 ft 458 kts 73°
2026-05-05 18:09 25.36428 -43.60326 39238 ft 458 kts 73°
2026-05-05 18:09 25.37739 -43.53433 39234 ft 458 kts 73°
2026-05-05 18:10 25.39038 -43.46540 39232 ft 458 kts 73°
2026-05-05 18:10 25.40331 -43.39643 39234 ft 458 kts 73°
2026-05-05 18:11 25.41627 -43.32750 39230 ft 458 kts 73°
2026-05-05 18:11 25.42926 -43.25859 39229 ft 457 kts 73°
2026-05-05 18:12 25.44216 -43.18970 39230 ft 457 kts 73°
2026-05-05 18:12 25.45497 -43.12075 39229 ft 457 kts 73°
2026-05-05 18:13 25.46767 -43.05185 39229 ft 457 kts 73°
2026-05-05 18:13 25.48034 -42.98343 39232 ft 457 kts 73°
2026-05-05 18:14 25.49314 -42.91459 39231 ft 457 kts 73°